863  
ASUS41 KAKQ 181214  
RWRAKQ  
 
REGIONAL WEATHER ROUNDUP  
NATIONAL WEATHER SERVICE WAKEFIELD VA  
800 AM EDT THU APR 18 2019  
 
NOTE: "FAIR" INDICATES FEW OR NO CLOUDS BELOW 12,000 FEET WITH NO  
SIGNIFICANT WEATHER AND/OR S TO VISIBILITY
. * = DENOTES  
STATION MAY NOT REPORT PRECIPITATION (E.G., RAIN,SNOW,ETC.),
 
THUNDER OR FOG.  
 
VAZ042-051-052>054-056-181300-  
NORTHERN VIRGINIA  
 
CITY SKY/WX TMP DP RH WIND PRES REMARKS
 
WASH NATIONAL CLOUDY 57 51 80 NE7 30.04R  
DULLES CLOUDY 55 50 83 E5 30.03S  
FORT BELVOIR CLOUDY 56 51 85 CALM 30.03S  
QUANTICO CLOUDY 58 54 86 E6 30.04S  
FREDERICKSBRG* CLOUDY 55 55 100 NE3 30.03R  
STAFFORD* CLOUDY 56 56 100 E6 30.07R  
WARRENTON CLOUDY 55 49 81 CALM 30.03S  
CULPEPER* CLOUDY 54 49 85 CALM 30.04S  
MANASSAS* CLOUDY 55 52 89 E3 30.03R  
LEESBURG* CLOUDY 54 52 94 CALM 30.05S  
WINCHESTER FAIR 50 46 87 CALM 30.04R  
FRONT ROYAL* FAIR 50 46 87 NW3 30.01R  
LURAY* PTSUNNY 52 48 87 CALM 30.01S  

 
 
VAZ048-049-060>072-079>083-181300-  
CENTRAL AND SOUTH CENTRAL VIRGINIA  
 
CITY SKY/WX TMP DP RH WIND PRES REMARKS
 
RICHMOND PTSUNNY 54 51 90 CALM 30.03R  
CHESTERFIELD* FAIR 53 50 89 CALM 30.04R  
PETERSBURG* FAIR 54 51 90 CALM 30.04R  
HANOVER FAIR 55 49 80 CALM 30.04R  
TAPPAHANNOCK* FAIR 53 52 96 CALM 30.03S  
QUINTON* FAIR 52 52 100 CALM 30.03R  
CHARLOTTSVILLE FAIR 55 48 77 CALM 30.02R  
GORDONSVILLE* CLOUDY 53 52 97 CALM 30.03R  
ORANGE* CLOUDY 52 46 82 CALM 30.03R  
LOUISA* FAIR 53 49 88 N3 30.07R  
BUMPASS* NOT AVBL  
FARMVILLE* FAIR 52 48 87 N6 30.02R  
CREWE* FAIR 51 51 100 CALM 30.03R  
FORT PICKETT* FAIR 54 54 100 CALM 30.03R  
CHASE CITY* FAIR 60 55 82 CALM 30.03R  
CLARKSVILLE* FAIR 59 59 100 S7 30.02R  
SOUTH HILL* FAIR 58 58 99 S7 30.09R  
LAWRENCEVILLE* FAIR 60 57 89 CALM 30.03R  
EMPORIA* FAIR 60 55 85 SE3 30.05R  

 
 
VAZ088>098-181300-  
SOUTHEAST VIRGINIA  
 
CITY SKY/WX TMP DP RH WIND PRES REMARKS
 
NORFOLK FAIR 63 55 75 S8 30.04R  
VIRGINIA BEACH PTSUNNY 62 54 74 S9 30.04R  
NORFOLK NAVAL PTSUNNY 64 53 67 S8 30.05R  
WEST POINT* FAIR 55 54 97 CALM 30.06R  
SALUDA* FAIR 57 57 100 CALM 30.03R  
NEWPORT NEWS FAIR 63 55 75 S8 30.04R  
LANGLEY AFB PTSUNNY 62 56 82 SW6 30.04R  
FORT EUSTIS FAIR 62 56 80 S8 30.01R  
WILLIAMSBURG* FAIR 64 57 77 CALM 30.04R  
HR EXEC AP* FAIR 61 54 77 S7 30.06R  
FRANKLIN* FAIR 60 56 89 S6 30.05R  
US460-WAKEFLD FAIR 60 55 83 S6 30.03R  

 
 
VAZ020-022-025-037-045-181300-  
WEST CENTRAL AND SOUTHWEST VIRGINIA  
 
CITY SKY/WX TMP DP RH WIND PRES REMARKS
 
STAUNTON* PTSUNNY 52 49 90 CALM 30.03R  
WAYNESBORO* CLOUDY 54 48 81 CALM 30.01R  
HOT SPRINGS VA PTSUNNY 58 49 72 CALM 30.04S  
LYNCHBURG PTSUNNY 54 48 80 NE6 30.02R  
DANVILLE FAIR 60 56 86 S3 30.02R  
SOUTH BOSTON* FAIR 59 56 89 S3 30.02R  
MARTINSVILLE FAIR 56 53 91 CALM 30.04R  
ROANOKE CLOUDY 57 49 74 S5 30.05R  
BLACKSBURG CLOUDY 54 51 90 E5 30.07R  
DUBLIN* CLOUDY 55 52 90 CALM 30.04R  
MARION* PTSUNNY 54 52 94 CALM 30.04R  
HILLSVILLE* FAIR 59 50 72 S5 30.03R  
RICHLANDS* PTSUNNY 62 38 40 SE3 29.99R  
WISE* FAIR 61 45 55 SW3 29.98S  
ABINGDON* PTSUNNY 57 47 69 E3 29.98S  

 
 
MDZ021>025-VAZ099-100-181300-  
SOUTHERN MARYLAND AND THE DELMARVA PENINSULA  
 
CITY SKY/WX TMP DP RH WIND PRES REMARKS
 
PATUXENT RIVER PTSUNNY 58 58 100 SE5 30.02R  
BAY BRIDGE APT CLOUDY 55 55 100 CALM 30.04S  
LEONARDTOWN PTSUNNY 55 55 100 CALM 30.04S  
DOVER CLOUDY 56 54 94 E12 30.04F  
GEORGETOWN FAIR 62 56 80 SE8 30.04S  
EASTON PTSUNNY 57 55 94 E5 30.06S  
CAMBRIDGE SUNNY 55 55 100 CALM 30.03S  
SALISBURY FAIR 58 56 93 S5 30.04R  
TANGIER FAIR 61 59 94 SE9 30.03  
OCEAN CITY FAIR 55 53 93 S5 30.05R  
WALLOPS ISLAND CLOUDY 59 55 87 S12 30.05R  
ACCOMACK* FAIR 61 58 88 S8 30.04S  

 
 
NCZ012>017-030>032-181300-  
NORTH CENTRAL AND EASTERN NORTH CAROLINA  
 
CITY SKY/WX TMP DP RH WIND PRES REMARKS
 
ROANOKE RAPIDS FAIR 57 57 100 S5 30.05R  
RALEIGH CLOUDY 61 55 81 SW7 30.05R  
ELIZABETH CITY FAIR 63 54 72 S7 30.07R  
AHOSKIE* FAIR 59 54 83 S7 30.05R  
EDENTON* FAIR 63 57 80 S9 30.09R  
CURRITUCK* FAIR 62 56 79 MISG 30.07R  
KILL DEVIL HLS FAIR 64 56 77 SW3 30.08R  
MANTEO FAIR 64 58 80 S9 30.09S  
CAPE HATTERAS FAIR 68 62 81 SW7 30.11R  
TARBORO* NOT AVBL  
GOLDSBORO CLOUDY 62 55 80 S5 30.06R  
WASHINGTON FAIR 61 55 82 S5 30.09S  
GREENVILLE FAIR 61 54 77 S9 30.09R  
NEW BERN FAIR 62 57 83 SW6 30.10R  
WILMINGTON FAIR 64 58 80 S3 30.09R  

 
 
VAZ048-181300-  
ELSEWHERE  
 
CITY SKY/WX TMP DP RH WIND PRES REMARKS
 
HARRISBURG PA CLOUDY 53 46 77 SE10 30.03F  
BALTIMORE CLOUDY 55 53 93 E5 30.04R FOG  
ANNAPOLIS CLOUDY 58 52 80 CALM 30.04R  
ANDREWS AFB CLOUDY 54 52 91 NE5 30.03S  
PHILADELPHIA CLOUDY 57 49 74 E10 30.08S  
HENDERSON NC FAIR 59 54 83 SW8 30.04R  
GREENSBORO PTSUNNY 62 58 86 SW8 30.02R  
ROCKY MOUNT FAIR 59 54 83 S6 30.06R  

 
 
VAZ100-181300-  
MARINE  
 
STATION/POSITION TIME TEMP WIND PRES WAVE SWELL
 
AIR SEA DIR/SP/G HT/PER HT/PER  
(UTC) (F) (DEG/KT/KT) (MB) (FT/S) (FT/S)  
BRANDYWINE LGT 1136 1017.7R  
CAPE MAY NJ 1142 56 53 130/ 14/ 18 1017.3R  
LEWES DE 1142 56 53 150/ 9/ 13 1017.5R  
15NM E FENWICK I 1150 49 1017.7R 4/ 7  
OCEAN-CITY-INLET 1142 54 50 170/ 4/ 8 1018.3R  
WACHAPREAGUE VA 1148 59 60 210/ 10/ 12 1016.9R  
THOMAS POINT MD 1200 55 55 350/ 2/ 3 1018.1R  
COVE POINT MD 1148 56 170/ 2/ 3 1017.4R  
SOLOMONS ISLAND 1136 58 56 100/ 5/ 5 1016.2R  
BISHOPS HEAD MD 1136 60 64 140/ 8/ 9 1017.2R  
PINEY POINT MD 1136 140/ 5/ 6 N/A  
CAMBRIDGE MD 1136 55 60 1016.8R  
LEWISETTA VA 1136 58 60 200/ 2/ 2 1016.6R  
STINGRAY PT 1148 58 57 180/ 6/ 6 1014.7R  
YORK RVR RNG VA 1148 62 200/ 10/ 11 1017.2R  
YORKTOWN VA 1148 63 59 200/ 8/ 12 1016.4R  
DOMINION TERM VA 1148 62 190/ 7/ 9 1017.5R  
KIPTOPEKE VA 1136 58 170/ 9/ 10 N/A  
CAPE HENRY VA 1136 62 190/ 12/ 15 1016.8R  
WILLOUBY STN VA 1136 62 180/ 14/ 16 1016.0R  
S CRANEY ISL VA 1148 63 190/ 7/ 11 1017.1R  
CAPE HENRY BUOY 1130 56 N/A 3/ 5  
1ST LANDING BUOY 1150 60 200/ 8/ 10 1017.2R  
64NM E OF VA BCH 1150 58 53 190/ 8/ 10 1019.0R 3/ 8 2/ 8  
DUCK PIER NC 1136 64 53 180/ 11/ 13 1017.9R  
44056 DUCK FRF 1100 52 N/A 2/ 8  
OREGON INLET NC 1136 66 66 190/ 11/ 12 1018.9R  
HATTERAS NC 1136 67 66 190/ 1/ 5 1019.2R  
CAPE LOOKOUT NC 1100 65 210/ 3/ 3 1019.3R  

 
 
 
CLICK HERE TO GO TO PREVIOUS BULLETINS.

The Nexlab VA Page
The Nexlab NC Page
The Nexlab MD Page Main Text Page